This demonstration page uses our WeatherBlox Daily Observations layout. Learn more.

Hourly Observations for February 27, 2017

Temp ( °F °C ) Dew Point ( °F °C ) Humidity (%) Winds ( mph kmh ) Pressure ( in mb ) Visibility ( mi km ) Precip ( " mm )
12:54 am 00:54 Clear 24 -4.4 20 -6.7 84 84 Calm 30.03 1017 10 16.0934 0 0
1:54 am 01:54 Clear 20 -6.7 17 -8.3 89 89 Calm 30.03 1017 10 16.0934 0 0
2:54 am 02:54 Clear 20 -6.7 18 -7.8 92 92 N 5 7 30.01 1016 10 16.0934 0 0
3:54 am 03:54 Clear 20 -6.7 17 -8.3 89 89 Calm 30.01 1016 10 16.0934 0 0
4:54 am 04:54 Clear 19 -7.2 16 -8.9 88 88 Calm 30 1016 10 16.0934 0 0
5:54 am 05:54 Clear 18 -7.8 16 -8.9 92 92 NNW 3 6 30.01 1016 10 16.0934 0 0
6:54 am 06:54 Clear 16 -8.9 13 -10.6 88 88 N 5 7 30.01 1016 10 16.0934 0 0
7:54 am 07:54 Sunny 23 -5 18 -7.8 81 81 Calm 30.02 1017 10 16.0934 0 0
8:54 am 08:54 Sunny 29 -1.7 23 -5 78 78 Calm 30.03 1017 9 14.48406 0 0
9:54 am 09:54 Sunny 36 2.2 28 -2.2 73 73 ESE 5 7 30 1016 10 16.0934 0 0
10:54 am 10:54 Mostly Sunny 44 6.7 30 -1.1 58 58 S 7 11 29.99 1016 10 16.0934 0 0
11:54 am 11:54 Mostly Sunny 51 10.6 24 -4.4 35 35 SSE 18 30 29.95 1014 10 16.0934 0 0
12:54 pm 12:54 Sunny 54 12.2 25 -3.9 33 33 SSE 18 30 29.89 1012 10 16.0934 0 0
1:54 pm 13:54 Sunny 56 13.3 25 -3.9 30 30 S 23 37 29.83 1010 10 16.0934 0 0
2:54 pm 14:54 Mostly Cloudy 58 14.4 30 -1.1 35 35 SE 22 35 29.8 1009 10 16.0934 0 0
3:54 pm 15:54 Cloudy 56 13.3 35 1.7 46 46 SSE 23 37 29.78 1008 10 16.0934 0 0
4:54 pm 16:54 Partly Cloudy 54 12.2 36 2.2 51 51 SSE 13 20 29.78 1008 10 16.0934 0 0
5:54 pm 17:54 Sunny 52 11.1 36 2.2 55 55 SE 10 17 29.76 1008 10 16.0934 0 0
6:54 pm 18:54 Partly Cloudy 49 9.4 35 1.7 59 59 ESE 6 9 29.77 1008 10 16.0934 0 0
7:54 pm 19:54 Clear 47 8.3 35 1.7 63 63 ESE 3 6 29.76 1008 10 16.0934 0 0
8:54 pm 20:54 Clear 42 5.6 34 1.1 73 73 Calm 29.75 1007 10 16.0934 0 0
9:54 pm 21:54 Clear 37 2.8 32 0 82 82 Calm 29.74 1007 10 16.0934 0 0
10:54 pm 22:54 Clear 36 2.2 31 -0.6 82 82 Calm 29.72 1006 10 16.0934 0 0
11:54 pm 23:54 Clear 38 3.3 33 0.6 83 83 Calm 29.65 1004 10 16.0934 0 0

Powered by AerisWeather